Location: Winthrop
(48.4780°N, 120.1850°W)
Time: 22:08:00
(UTC-07:00)

S-56A Canister/Altair - Pass Details

Date: 10 June 2023
Orbit: 640 x 2489 km, 38.9° (Epoch: 29 September)

Event Time Altitude Azimuth Distance (km) Brightness Sun altitude
Rises 22:23:52 0° 260° (W) 5,239 12.2 -10.4°
Reaches altitude 10° 22:27:03 10° 256° (WSW) 4,451 11.7 -10.7°
Maximum altitude 22:39:32 57° 183° (S) 2,710 10.0 -11.8°
Drops below altitude 10° 22:54:03 10° 111° (ESE) 5,111 11.3 -13.1°
Sets 22:57:59 0° 108° (ESE) 6,038 11.7 -13.4°
